Time,TemperatureF,DewpointF,PressureIn,WindDirection,WindDirectionDegrees,WindSpeedMPH,WindSpeedGustMPH,Humidity,HourlyPrecipIn,Conditions,Clouds,dailyrainin,SoftwareType,DateUTC
2013-05-28 00:03:00,65.7,65.1,29.58,SE,135,2.7,-999.0,98,-99.99,,,0.00,Acu-Link.com,2013-05-28 05:03:00,
2013-05-28 00:18:00,65.3,64.7,29.56,NNE,22,1.1,-999.0,98,-99.99,,,0.00,Acu-Link.com,2013-05-28 05:18:00,
2013-05-28 00:33:00,64.9,64.3,29.58,West,270,1.1,-999.0,98,-99.99,,,0.00,Acu-Link.com,2013-05-28 05:33:00,
2013-05-28 00:48:00,65.1,64.5,29.59,South,180,1.1,-999.0,98,-99.99,,,0.00,Acu-Link.com,2013-05-28 05:48:00,
2013-05-28 01:03:00,65.1,64.5,29.58,ESE,112,0.0,-999.0,98,-99.99,,,0.00,Acu-Link.com,2013-05-28 06:03:00,
2013-05-28 01:19:00,65.1,64.5,29.61,SW,225,0.0,-999.0,98,-99.99,,,0.00,Acu-Link.com,2013-05-28 06:19:00,
2013-05-28 01:34:00,65.1,64.5,29.60,West,270,2.2,-999.0,98,-99.99,,,0.01,Acu-Link.com,2013-05-28 06:34:00,
2013-05-28 01:49:00,64.8,64.2,29.60,North,0,0.0,-999.0,98,-99.99,,,0.01,Acu-Link.com,2013-05-28 06:49:00,
2013-05-28 02:04:00,64.2,63.6,29.61,South,180,2.2,-999.0,98,-99.99,,,0.01,Acu-Link.com,2013-05-28 07:04:00,
2013-05-28 02:19:00,64.0,63.4,29.61,ESE,112,1.1,-999.0,98,-99.99,,,0.01,Acu-Link.com,2013-05-28 07:19:00,
2013-05-28 02:35:00,64.0,63.4,29.61,SSW,202,0.0,-999.0,98,-99.99,,,0.01,Acu-Link.com,2013-05-28 07:35:00,
2013-05-28 02:50:00,64.0,63.4,29.60,NNE,22,1.7,-999.0,98,-99.99,,,0.01,Acu-Link.com,2013-05-28 07:50:00,
2013-05-28 03:06:00,64.0,63.4,29.60,ESE,112,1.1,-999.0,98,-99.99,,,0.01,Acu-Link.com,2013-05-28 08:06:00,
2013-05-28 03:21:00,64.0,63.4,29.60,South,180,0.0,-999.0,98,-99.99,,,0.01,Acu-Link.com,2013-05-28 08:21:00,
2013-05-28 03:36:00,64.0,63.4,29.60,WNW,292,0.0,-999.0,98,-99.99,,,0.01,Acu-Link.com,2013-05-28 08:36:00,
2013-05-28 03:52:00,64.2,63.6,29.61,SE,135,2.2,-999.0,98,-99.99,,,0.01,Acu-Link.com,2013-05-28 08:52:00,
2013-05-28 04:07:00,64.4,63.8,29.63,WSW,247,2.7,-999.0,98,-99.99,,,0.01,Acu-Link.com,2013-05-28 09:07:00,
2013-05-28 04:22:00,63.9,63.3,29.64,SSE,157,0.0,-999.0,98,-99.99,,,0.01,Acu-Link.com,2013-05-28 09:22:00,
2013-05-28 04:37:00,62.8,62.2,29.63,WSW,247,0.0,-999.0,98,-99.99,,,0.01,Acu-Link.com,2013-05-28 09:37:00,
2013-05-28 04:52:00,61.9,61.3,29.63,SE,135,0.0,-999.0,98,-99.99,,,0.01,Acu-Link.com,2013-05-28 09:52:00,
2013-05-28 05:07:00,61.3,60.7,29.63,East,90,0.0,-999.0,98,-99.99,,,0.01,Acu-Link.com,2013-05-28 10:07:00,
2013-05-28 05:23:00,61.3,60.7,29.63,NNW,337,0.0,-999.0,98,-99.99,,,0.01,Acu-Link.com,2013-05-28 10:23:00,
2013-05-28 05:38:00,61.5,60.9,29.63,East,90,3.2,-999.0,98,-99.99,,,0.01,Acu-Link.com,2013-05-28 10:38:00,
2013-05-28 05:53:00,61.7,61.1,29.63,ESE,112,1.7,-999.0,98,-99.99,,,0.01,Acu-Link.com,2013-05-28 10:53:00,
2013-05-28 06:08:00,61.9,61.3,29.64,NNE,22,2.2,-999.0,98,-99.99,,,0.01,Acu-Link.com,2013-05-28 11:08:00,
2013-05-28 06:23:00,62.4,61.8,29.62,ESE,112,0.0,-999.0,98,-99.99,,,0.01,Acu-Link.com,2013-05-28 11:23:00,
2013-05-28 06:39:00,62.4,61.8,29.63,North,0,1.1,-999.0,98,-99.99,,,0.01,Acu-Link.com,2013-05-28 11:39:00,
2013-05-28 06:54:00,62.4,61.8,29.64,South,180,2.7,-999.0,98,-99.99,,,0.01,Acu-Link.com,2013-05-28 11:54:00,
2013-05-28 07:09:00,62.6,62.0,29.65,NNE,22,1.7,-999.0,98,-99.99,,,0.01,Acu-Link.com,2013-05-28 12:09:00,
2013-05-28 07:24:00,63.5,62.9,29.64,NE,45,2.2,-999.0,98,-99.99,,,0.01,Acu-Link.com,2013-05-28 12:24:00,
2013-05-28 07:39:00,64.4,63.8,29.65,NE,45,1.7,-999.0,98,-99.99,,,0.01,Acu-Link.com,2013-05-28 12:39:00,
2013-05-28 07:55:00,66.6,66.0,29.64,East,90,1.7,-999.0,98,-99.99,,,0.01,Acu-Link.com,2013-05-28 12:55:00,
2013-05-28 08:10:00,68.0,67.1,29.63,ESE,112,3.7,-999.0,97,-99.99,,,0.01,Acu-Link.com,2013-05-28 13:10:00,
2013-05-28 08:25:00,71.6,66.8,29.62,NE,45,2.7,-999.0,85,-99.99,,,0.01,Acu-Link.com,2013-05-28 13:25:00,
2013-05-28 08:40:00,74.7,67.7,29.61,SE,135,2.2,-999.0,79,-99.99,,,0.01,Acu-Link.com,2013-05-28 13:40:00,
2013-05-28 08:55:00,76.8,67.9,29.60,SSE,157,2.2,-999.0,74,-99.99,,,0.01,Acu-Link.com,2013-05-28 13:55:00,
2013-05-28 09:11:00,77.9,68.1,29.61,ESE,112,0.0,-999.0,72,-99.99,,,0.01,Acu-Link.com,2013-05-28 14:11:00,
2013-05-28 09:26:00,79.5,68.0,29.61,ESE,112,2.2,-999.0,68,-99.99,,,0.01,Acu-Link.com,2013-05-28 14:26:00,
2013-05-28 09:41:00,73.6,67.0,29.61,ENE,67,2.7,-999.0,80,-99.99,,,0.01,Acu-Link.com,2013-05-28 14:41:00,
2013-05-28 09:56:00,73.8,67.6,29.62,North,0,2.7,-999.0,81,-99.99,,,0.01,Acu-Link.com,2013-05-28 14:56:00,
2013-05-28 10:12:00,73.4,67.2,29.61,ESE,112,2.2,-999.0,81,-99.99,,,0.01,Acu-Link.com,2013-05-28 15:12:00,
2013-05-28 10:27:00,73.2,67.4,29.63,NNE,22,0.0,-999.0,82,-99.99,,,0.01,Acu-Link.com,2013-05-28 15:27:00,
2013-05-28 10:42:00,75.2,67.9,29.61,ENE,67,2.2,-999.0,78,-99.99,,,0.01,Acu-Link.com,2013-05-28 15:42:00,
2013-05-28 10:57:00,75.9,68.2,29.63,SW,225,3.2,-999.0,77,-99.99,,,0.01,Acu-Link.com,2013-05-28 15:57:00,
2013-05-28 11:12:00,77.5,67.7,29.64,West,270,2.7,-999.0,72,-99.99,,,0.01,Acu-Link.com,2013-05-28 16:12:00,
2013-05-28 11:28:00,77.4,67.6,29.63,SSW,202,0.0,-999.0,72,-99.99,,,0.01,Acu-Link.com,2013-05-28 16:28:00,
2013-05-28 11:43:00,77.5,68.9,29.64,SSE,157,2.2,-999.0,75,-99.99,,,0.01,Acu-Link.com,2013-05-28 16:43:00,
2013-05-28 11:58:00,78.8,69.0,29.63,ESE,112,2.7,-999.0,72,-99.99,,,0.01,Acu-Link.com,2013-05-28 16:58:00,
2013-05-28 12:13:00,79.5,70.5,29.63,North,0,2.7,-999.0,74,-99.99,,,0.01,Acu-Link.com,2013-05-28 17:13:00,
2013-05-28 12:28:00,80.2,70.3,29.66,SE,135,2.2,-999.0,72,-99.99,,,0.01,Acu-Link.com,2013-05-28 17:28:00,
2013-05-28 12:44:00,78.8,68.2,29.65,SSE,157,2.7,-999.0,70,-99.99,,,0.01,Acu-Link.com,2013-05-28 17:44:00,
2013-05-28 12:59:00,80.4,69.7,29.64,ESE,112,2.7,-999.0,70,-99.99,,,0.01,Acu-Link.com,2013-05-28 17:59:00,
2013-05-28 13:14:00,79.2,70.2,29.64,SSE,157,0.0,-999.0,74,-99.99,,,0.01,Acu-Link.com,2013-05-28 18:14:00,
2013-05-28 13:29:00,80.4,69.7,29.64,ESE,112,2.7,-999.0,70,-99.99,,,0.01,Acu-Link.com,2013-05-28 18:29:00,
2013-05-28 13:44:00,83.7,71.6,29.62,SE,135,2.7,-999.0,67,-99.99,,,0.01,Acu-Link.com,2013-05-28 18:44:00,
2013-05-28 14:00:00,82.6,69.6,29.63,ENE,67,3.7,-999.0,65,-99.99,,,0.01,Acu-Link.com,2013-05-28 19:00:00,
2013-05-28 14:15:00,84.2,70.2,29.64,ESE,112,4.2,-999.0,63,-99.99,,,0.01,Acu-Link.com,2013-05-28 19:15:00,
2013-05-28 14:30:00,83.8,68.9,29.65,NNE,22,2.2,-999.0,61,-99.99,,,0.01,Acu-Link.com,2013-05-28 19:30:00,
2013-05-28 14:45:00,84.7,69.2,29.67,South,180,3.7,-999.0,60,-99.99,,,0.01,Acu-Link.com,2013-05-28 19:45:00,
2013-05-28 15:01:00,84.4,67.5,29.65,SW,225,1.1,-999.0,57,-99.99,,,0.01,Acu-Link.com,2013-05-28 20:01:00,
2013-05-28 15:16:00,83.3,67.9,29.66,NE,45,1.7,-999.0,60,-99.99,,,0.01,Acu-Link.com,2013-05-28 20:16:00,
2013-05-28 15:31:00,83.5,68.1,29.65,WSW,247,1.7,-999.0,60,-99.99,,,0.01,Acu-Link.com,2013-05-28 20:31:00,
2013-05-28 15:46:00,84.2,68.8,29.65,NE,45,1.7,-999.0,60,-99.99,,,0.01,Acu-Link.com,2013-05-28 20:46:00,
2013-05-28 16:02:00,84.9,67.9,29.63,NW,315,3.7,-999.0,57,-99.99,,,0.01,Acu-Link.com,2013-05-28 21:02:00,
2013-05-28 16:17:00,84.2,67.3,29.61,South,180,6.3,-999.0,57,-99.99,,,0.01,Acu-Link.com,2013-05-28 21:17:00,
2013-05-28 16:32:00,84.4,68.0,29.60,ESE,112,1.7,-999.0,58,-99.99,,,0.01,Acu-Link.com,2013-05-28 21:32:00,
2013-05-28 16:47:00,84.7,67.8,29.58,SSE,157,3.2,-999.0,57,-99.99,,,0.01,Acu-Link.com,2013-05-28 21:47:00,
2013-05-28 17:02:00,84.7,68.3,29.55,NE,45,3.2,-999.0,58,-99.99,,,0.01,Acu-Link.com,2013-05-28 22:02:00,
2013-05-28 17:17:00,84.0,67.6,29.56,North,0,2.7,-999.0,58,-99.99,,,0.01,Acu-Link.com,2013-05-28 22:17:00,
2013-05-28 17:33:00,84.0,68.6,29.58,East,90,7.8,-999.0,60,-99.99,,,0.01,Acu-Link.com,2013-05-28 22:33:00,
2013-05-28 17:48:00,83.3,68.4,29.58,WNW,292,1.7,-999.0,61,-99.99,,,0.01,Acu-Link.com,2013-05-28 22:48:00,
2013-05-28 18:03:00,84.0,69.1,29.58,ESE,112,4.7,-999.0,61,-99.99,,,0.01,Acu-Link.com,2013-05-28 23:03:00,
2013-05-28 18:19:00,84.6,69.6,29.57,NE,45,3.7,-999.0,61,-99.99,,,0.01,Acu-Link.com,2013-05-28 23:19:00,
2013-05-28 18:34:00,86.2,69.1,29.56,NNE,22,2.7,-999.0,57,-99.99,,,0.01,Acu-Link.com,2013-05-28 23:34:00,
2013-05-28 18:49:00,85.8,68.3,29.58,ESE,112,2.7,-999.0,56,-99.99,,,0.01,Acu-Link.com,2013-05-28 23:49:00,
2013-05-28 19:04:00,84.2,67.3,29.56,ESE,112,3.2,-999.0,57,-99.99,,,0.01,Acu-Link.com,2013-05-29 00:04:00,
2013-05-28 19:19:00,81.9,65.1,29.57,ESE,112,4.2,-999.0,57,-99.99,,,0.01,Acu-Link.com,2013-05-29 00:19:00,
2013-05-28 19:35:00,79.9,66.2,29.56,North,0,6.8,-999.0,63,-99.99,,,0.01,Acu-Link.com,2013-05-29 00:35:00,
2013-05-28 19:50:00,79.2,66.0,29.57,NE,45,2.7,-999.0,64,-99.99,,,0.01,Acu-Link.com,2013-05-29 00:50:00,
2013-05-28 20:05:00,78.6,65.8,29.59,East,90,1.7,-999.0,65,-99.99,,,0.01,Acu-Link.com,2013-05-29 01:05:00,
2013-05-28 20:20:00,77.9,66.9,29.59,SE,135,3.2,-999.0,69,-99.99,,,0.01,Acu-Link.com,2013-05-29 01:20:00,
2013-05-28 20:35:00,76.6,68.5,29.62,SE,135,6.3,-999.0,76,-99.99,,,0.01,Acu-Link.com,2013-05-29 01:35:00,
2013-05-28 20:51:00,74.3,67.0,29.65,WSW,247,6.8,-999.0,78,-99.99,,,0.01,Acu-Link.com,2013-05-29 01:51:00,
2013-05-28 21:06:00,73.6,67.0,29.61,NE,45,2.2,-999.0,80,-99.99,,,0.01,Acu-Link.com,2013-05-29 02:06:00,
2013-05-28 21:21:00,72.7,67.2,29.60,East,90,4.2,-999.0,83,-99.99,,,0.01,Acu-Link.com,2013-05-29 02:21:00,
2013-05-28 21:37:00,72.1,67.0,29.62,ESE,112,4.2,-999.0,84,-99.99,,,0.01,Acu-Link.com,2013-05-29 02:37:00,
2013-05-28 21:52:00,71.6,65.5,29.62,WSW,247,2.2,-999.0,81,-99.99,,,0.01,Acu-Link.com,2013-05-29 02:52:00,
2013-05-28 22:07:00,70.7,64.9,29.63,SW,225,2.7,-999.0,82,-99.99,,,0.01,Acu-Link.com,2013-05-29 03:07:00,
2013-05-28 22:22:00,70.2,64.1,29.61,WSW,247,2.7,-999.0,81,-99.99,,,0.01,Acu-Link.com,2013-05-29 03:22:00,
2013-05-28 22:37:00,69.6,64.2,29.62,West,270,3.2,-999.0,83,-99.99,,,0.01,Acu-Link.com,2013-05-29 03:37:00,
2013-05-28 22:53:00,68.7,64.0,29.61,ESE,112,0.0,-999.0,85,-99.99,,,0.01,Acu-Link.com,2013-05-29 03:53:00,
2013-05-28 23:08:00,68.5,63.8,29.59,NE,45,0.0,-999.0,85,-99.99,,,0.01,Acu-Link.com,2013-05-29 04:08:00,
2013-05-28 23:23:00,68.2,63.8,29.60,SSW,202,3.2,-999.0,86,-99.99,,,0.01,Acu-Link.com,2013-05-29 04:23:00,
2013-05-28 23:39:00,68.9,64.2,29.61,West,270,5.3,-999.0,85,-99.99,,,0.01,Acu-Link.com,2013-05-29 04:39:00,
2013-05-28 23:54:00,69.3,63.6,29.61,East,90,3.7,-999.0,82,-99.99,,,0.01,Acu-Link.com,2013-05-29 04:54:00,